Weather in Zhankhoteko

Russia / The Kabardino-Balkar Republic     43°33′42″N   43°12′26″E
temp.,
°C
wind,
m/s
gust,
m/s
humid.,
%
clouds,
%
prec.,
mm/h
press.,
hPa
HPBL,
m
7 march, sun
sun700:000sw5658100 0.0 101789
03:00−2sw126798 0.0 102022
06:00−7nne349076 0.3 1023376
09:00−7ne239188 1.7 1024391
12:00−5ene3388100 0.9 1023457
15:00−5ene3387100 1.3 1022414
18:00−7e1295100 0.3 1023142
21:00−8s2290100 0.3 102483
8 march, mon
mon800:00−8wsw126934 0.0 102222
03:00−8wsw116723 0.0 102221
06:00−9ssw117316 0.0 102121
09:00−5ese117250 0.0 1020348
12:00−2ene216995 0.0 1018656
15:00−2ne217297 0.1 1017701
18:00−5ne1294100 0.6 1017124
21:00−6sw1189100 1.1 101962
9 march, tue
tue900:00−7sw2285100 0.2 101955
03:00−8sw2274100 0.3 101969
06:00−9sw336190 0.0 101956
09:00−4se015968 0.0 1018357
12:00−1ne22581 0.0 1017915
15:00−1nne336120 0.1 10171127
18:00−4ne1297100 0.6 1019164
21:00−6sw2290100 1.6 102274
10 march, wed
wed1000:00−8sw347894 0.8 1023117
03:00−9ssw236293 1.1 102471
06:00−10ssw227589 0.2 102568
09:00−6e128194 0.4 1024414
12:00−5ne3490100 0.6 1022440
15:00−5ene3389100 1.4 1020414
18:00−7e2295100 0.4 1020189
21:00−7ese1294100 1.0 1020141
11 march, thu
thu1100:00−8e1295100 1.3 1018148
03:00−9e2295100 2.9 1018225
06:00−10ese2293100 0.4 1017187
09:00−9e3391100 1.6 1016457
12:00−9e4489100 1.6 1015618
15:00−10e4492100 3.8 1015581
18:00−13e3396100 2.1 1018329
21:00−14e2396100 3.3 1020240